Regional Weather Roundup
Issued by NWS Upton, NY

Current Version | Previous Version | Text Only | Print | Product List | Glossary On
Versions: 1 2 3 4 5 6 7 8 9 10 11 12 13 14 15 16 17 18 19 20 21 22 23 24 25 26 27 28 29 30 31 32 33 34 35 36 37 38 39 40 41 42 43 44 45 46 47 48 49 50
000
ASUS41 KOKX 310204
RWROKX

REGIONAL WEATHER ROUNDUP
NATIONAL WEATHER SERVICE NEW YORK NY
1000 PM EDT SAT JUL 30 2016

NOTE: "FAIR" INDICATES FEW OR NO CLOUDS BELOW 12,000 FEET WITH NO
SIGNIFICANT WEATHER AND/OR OBSTRUCTIONS TO VISIBILITY.

NYZ071-072-176-178-NJZ106-104-310300-
NEW YORK CITY METRO AREA

CITY           SKY/WX    TMP DP  RH WIND       PRES   REMARKS
Central Park   LGT RAIN  74  72  93 VRB3      30.08R FOG
LaGuardia APRT LGT RAIN  77  73  87 SE5       30.04S
Kennedy INTL   LGT RAIN  76  72  87 E5        30.06R
Newark/Liberty LGT RAIN  74  73  97 SE5       30.04R
Bronx Bot Gard   N/A     73  72  94 CALM      30.07S
Wall St Helipt CLOUDY    75  73  94 E3        30.05S
Teterboro      RAIN      75  72  90 CALM      30.04S FOG
$$

NYZ177-179-078>081-310300-
LONG ISLAND NEW YORK

CITY           SKY/WX    TMP DP  RH WIND       PRES   REMARKS
Farmingdale    CLOUDY    75  73  93 SE3       30.06S
MacArthur/ISP  DRIZZLE   75  73  93 CALM      30.06S
Shirley        CLOUDY    74  73  97 SE3       30.07S
Riverhead      NOT AVBL
Westhampton    PTCLDY    74  72  93 CALM      30.09S FOG
Southhampton     N/A     73  72  94 S3        30.03S
Bridgehampton    N/A     72  72 100 CALM      30.06S
East Hampton   FAIR      73  71  93 CALM      30.07S
Montauk          N/A     74  72  93 VRB3      30.09R
$$

NYZ052-065-067-310300-
HUDSON VALLEY

CITY           SKY/WX    TMP DP  RH WIND       PRES   REMARKS
White Plains   LGT RAIN  74  72  93 CALM      30.06S FOG
Newburgh       CLOUDY    70  70 100 CALM      30.08S FOG
Montgomery     LGT RAIN  69  68  96 N3        30.07R
Poughkeepsie   CLOUDY    73  70  90 NE5       30.05S
Albany         LGT RAIN  69  65  86 E5        30.07R
$$

NJZ001-105-106-008-010-013-015-019>022-104-310300-
NEW JERSEY

CITY           SKY/WX    TMP DP  RH WIND       PRES   REMARKS
Newark/Liberty LGT RAIN  74  73  97 SE5       30.04R
Teterboro      RAIN      75  72  90 CALM      30.04S FOG
Caldwell       LGT RAIN  73  72  96 E5        30.05S FOG
Morristown     LGT RAIN  72  70  94 CALM      30.05S
Somerville     LGT RAIN  73  71  93 CALM      30.02S FOG
Linden         RAIN      75  73  92 CALM      30.05S
Sussex         LGT RAIN  70  69  97 CALM      30.06R
Abdover          N/A     70  69  97 CALM      30.06R
Trenton        LGT RAIN  74  72  93 E6        30.02S FOG
Millville      CLOUDY    76  72  87 E6        30.02R
Atlantic City  CLOUDY    77  71  82 SE7       30.02S
Wrightstown    CLOUDY    75  73  94 E6        29.99F
Toms River     CLOUDY    76  72  87 E3        30.04R
Belmar         CLOUDY    75  74  96 SE5       30.05S
$$

PAZ047>061-062-071-310300-
EASTERN PENNSYLVANIA

CITY           SKY/WX    TMP DP  RH WIND       PRES   REMARKS
Philadelphia   LGT RAIN  76  73  91 SE8       30.02R
Allentown      CLOUDY    72  69  90 E8        30.03R
Scranton       LGT RAIN  69  67  93 NE6       30.04R
$$

CTZ002-004>006-009-010-012-RIZ004-006-007-MAZ004-011-015-310300-
SOUTHERN NEW ENGLAND
 IN CT

CITY           SKY/WX    TMP DP  RH WIND       PRES   REMARKS
Bradley INTL   LGT RAIN  71  69  93 NE3       30.08R
Hartford       MOCLDY    74  71  91 CALM      30.07R
Danbury        CLOUDY    72  70  93 SE3       30.08S FOG
Wtrbury/Oxford   N/A     72  68  88 CALM      30.11R
Bridgeport     CLOUDY    77  72  84 S3        30.06S
Meriden        MOCLDY    73  70  90 CALM      30.07R
New Haven      CLOUDY    75  73  93 CALM      30.07R
Chester        CLOUDY    73  72  94 CALM      30.08S
Groton         LGT RAIN  73  71  93 S5        30.07R
Wilimantic     MOCLDY    75  74  96 SW3       30.08R

 IN RI

CITY           SKY/WX    TMP DP  RH WIND       PRES   REMARKS
Providence     LGT RAIN  74  68  81 SW8       30.08R
Block Island   CLOUDY    74  71  91 S8        30.09R
Westerly       LGT RAIN  74  69  85 S5        30.09R
 IN MA

CITY           SKY/WX    TMP DP  RH WIND       PRES   REMARKS
Boston         CLOUDY    71  68  90 E8        30.06R
Worchester     LGT RAIN  69  66  90 W10       30.10R
Westfield      LGT RAIN  69  67  93 CALM      30.07S
Provincetown   CLOUDY    73  70  90 S6        30.09R
Nantucket      FOG       66  65  96 S3        30.09R VSB 1/4
$$

ANZ330-335-338-340-345-350-353-355-310300-
COASTAL MARINE OBSERVATIONS


STATION/POSITION TIME  SKY/WX   TEMP    WIND        PRES    VSBY  WAVE
                                AIR SEA DIR/SP/G                  HT/PER
                 (UTC)          (F)     (DEG/KT/KT) (MB)    (MI)  (FT/S)
NY HARB ENTRANCE 0050            75 73  130/  4/  6 1017.0          2/ 4
20S FIRE ISLAND  0050            76 76  160/  6/  6 1017.1          2/ 6
GREAT SOUTH BAY  0100            77 82  210/  6/  8   N/A
23 SSW MONTAUK P 0050            74 73  180/  6/  6 1018.3          2/ 7
15 E BARNEGAT LI 0100               78                N/A           2/ 3
HUDSON CANYON    0050            77 78              1017.0          2/ 8
KINGS POINT      0100               73              1017.3
EXECUTION ROCKS  0100            74     110/  4/  4   N/A
CENTRAL LI SOUND 0145            76 76  210/  6/  8   N/A           1
EASTERN LI SOUND 0100            71 69  180/  6/  8   N/A
ROBBINS REEF     0106                   130/  6/  8   N/A
$$


>>>>>>>>>>>>>>>>>>>>>>>>>>>> KEY <<<<<<<<<<<<<<<<<<<<<<<<<<<
>                                                          <
>     SKY/WX - Sky Condition/Present Weather               <
>     TMP    - Temperature in Fahrenheit                   <
>     DP     - Dew Point in Fahrenheit                     <
>     RH     - Relative Humidity in Percent                <
>     WIND   - Direction (from) and Speed in MPH           <
>     PRES   - Mean Sea Level Pressure (inches of Hg)      <
>     WCI    - Wind Chill Index                            <
>     VSB    - VISIBILITY IN MILES                         <
>     HX     - HEAT INDEX                                  <
>     TC     - TEMPERATURE IN CELSIUS                      <
>     VRB    - VARIABLE WIND DIRECTION                     <
>                                                          <
>>>>>>>>>>>>>>>>>>>>>>>>>>>> KEY <<<<<<<<<<<<<<<<<<<<<<<<<<<



USA.gov is the U.S. government's official web portal to all federal, state and local government web resources and services.